Weather History for Chios, Greece

Change the Weather History Date:

Friday, March 15, 2013

  Actual Average (LTBL) Record (LTBL)
Temperature  
Mean Temperature 58 °F -  
Max Temperature 62 °F 60 °F 68 °F (2001)
Min Temperature 55 °F 41 °F 33 °F (1997)
Degree Days  
Heating Degree Days 6    
Growing Degree Days 8 (Base 50)    
Moisture  
Dew Point 47 °F    
Average Humidity 63    
Maximum Humidity 82    
Minimum Humidity 52    
Precipitation  
Precipitation 0.00 in - - ()
Sea Level Pressure  
Sea Level Pressure 29.48 in    
Wind  
Wind Speed 15 mph ()    
Max Wind Speed 21 mph    
Max Gust Speed 38 mph    
Visibility 6.2 miles    
Events Rain    
Averages and records for this station are not official NWS values.
T = Trace of Precipitation, MM = Missing Value Source: Averaged Metar Reports

Daily Weather History Graph

Daily Weather History Graph

Search for Another Location

Airport:

Trip Planner

Search our weather history database for the weather conditions in past years. The results will help you decide how hot, cold, wet, or windy it might be!

Date:

Astronomy

Mar. 15, 2013 Rise Set
Actual Time 6:26 AM EET 6:22 PM EET
Civil Twilight 6:00 AM EET 6:48 PM EET
Nautical Twilight 5:29 AM EET 7:19 PM EET
Astronomical Twilight 4:58 AM EET 7:50 PM EET
Moon 8:08 AM EET (3/15) 10:14 PM EET (3/15)
Length of Visible Light 12h 48m
Length of Day
11h 55m
Waxing Crescent, 13% of the Moon is Illuminated
Mar 15
Waxing Crescent
Mar 19
First Quarter
Mar 27
Full
Apr 3
Last Quarter
Apr 10
New

Hourly Weather History & Observations

Time (EET) Temp. Dew Point Humidity Pressure Visibility Wind Dir Wind Speed Gust Speed Precip Events Conditions
1:50 AM 62.6 °F 57.2 °F 82% 29.42 in 6.2 mi SSW 18.4 mph 29.9 mph N/A Rain Light Rain
4:50 AM 59.0 °F 44.6 °F 59% 29.42 in 6.2 mi SW 17.3 mph - N/A   Overcast
5:50 AM 59.0 °F 44.6 °F 59% 29.42 in 6.2 mi SSW 16.1 mph - N/A   Overcast
6:50 AM 59.0 °F 46.4 °F 63% 29.42 in 6.2 mi SSW 17.3 mph 28.8 mph N/A   Mostly Cloudy
7:50 AM 59.0 °F 46.4 °F 63% 29.42 in 6.2 mi SSW 12.7 mph - N/A   Scattered Clouds
8:50 AM 60.8 °F 46.4 °F 59% 29.47 in 6.2 mi SSW 15.0 mph 26.5 mph N/A   Scattered Clouds
9:50 AM 60.8 °F 46.4 °F 59% 29.47 in 6.2 mi SSW 20.7 mph - N/A   Scattered Clouds
10:50 AM 62.6 °F 48.2 °F 59% 29.47 in 6.2 mi SW 20.7 mph 33.4 mph N/A   Scattered Clouds
11:50 AM 62.6 °F 44.6 °F 52% 29.47 in 6.2 mi SW 19.6 mph 35.7 mph N/A   Scattered Clouds
12:50 PM 62.6 °F 46.4 °F 55% 29.47 in 6.2 mi SSW 18.4 mph - N/A   Scattered Clouds
1:50 PM 60.8 °F 48.2 °F 63% 29.47 in 6.2 mi SW 19.6 mph 38.0 mph N/A   Scattered Clouds
2:50 PM 60.8 °F 48.2 °F 63% 29.47 in 6.2 mi SSW 20.7 mph 34.5 mph N/A   Scattered Clouds
4:20 PM 60.8 °F 48.2 °F 63% 29.47 in 6.2 mi SW 16.1 mph 28.8 mph N/A   Scattered Clouds
4:50 PM 60.8 °F 42.8 °F 52% 29.47 in 6.2 mi SW 17.3 mph - N/A   Scattered Clouds
5:50 PM 59.0 °F 44.6 °F 59% 29.50 in 6.2 mi SW 17.3 mph - N/A   Partly Cloudy
6:50 PM 57.2 °F 44.6 °F 63% 29.53 in 6.2 mi SSW 11.5 mph - N/A   Mostly Cloudy
7:50 PM 55.4 °F 48.2 °F 77% 29.56 in 6.2 mi SW 15.0 mph - N/A   Scattered Clouds
8:50 PM 55.4 °F 48.2 °F 77% 29.56 in 6.2 mi SSW 11.5 mph - N/A   Partly Cloudy
9:50 PM 55.4 °F 44.6 °F 67% 29.59 in 6.2 mi SW 10.4 mph - N/A   Partly Cloudy
10:50 PM 55.4 °F 42.8 °F 63% 29.59 in 6.2 mi SSW 16.1 mph 27.6 mph N/A   Partly Cloudy